User: anonymous   Login
Location: Norwich
(52.6280°N, 1.3030°E)
Time: 23:28:44
(UTC+01:00)
Language:

Meteor 1-22 Rocket - Orbit

View from above orbital plane
View from above orbital plane
View from above satellite
View from above satellite

Ground track
Ground track

The orbit data is extracted from the following two-line orbital elements,

1  8294U 75087B   17085.96035417 -.00000069 +00000-0 -44353-4 0  9996
2  8294 081.2065 102.7579 0104359 274.3627 084.5625 14.08560163133024
Epoch (UTC): 26 March 2017 23:02:54
Eccentricity: 0.0104359
inclination: 81.2065°
perigee height: 789 km
apogee height: 940 km
right ascension of ascending node: 102.7579°
argument of perigee: 274.3627°
revolutions per day: 14.08560163
mean anomaly at epoch: 84.5625°
orbit number at epoch: 13302

The dashed part of the orbit path shows where the satellite is in the earth's shadow,  

DLR